EN

Hourly Weather Kien Giang

Today, 29 November, Sunday

Time Temperature Precipitation Wind Pressure Humidity
00:00 +26°C° 0 mm 3 mps 757 mmHg 87%
01:00 +26°C° 0 mm 2 mps 757 mmHg 88%
02:00 +25°C° 0 mm 3 mps 757 mmHg 89%
03:00 +25°C° 0 mm 3 mps 756 mmHg 90%
04:00 +25°C° 0 mm 3 mps 756 mmHg 91%
05:00 +25°C° 0 mm 3 mps 756 mmHg 90%
06:00 +25°C° 0 mm 3 mps 757 mmHg 90%
07:00 +25°C° 0 mm 3 mps 757 mmHg 89%
08:00 +27°C° 0 mm 3 mps 757 mmHg 84%
09:00 +29°C° 0 mm 3 mps 758 mmHg 80%
10:00 +30°C° 0 mm 3 mps 758 mmHg 75%
11:00 +30°C° 1.5 mm 3 mps 757 mmHg 75%
12:00 +32°C° 1.5 mm 4 mps 757 mmHg 74%
13:00 +32°C° 1.5 mm 4 mps 756 mmHg 74%
14:00 +30°C° 1.8 mm 4 mps 756 mmHg 77%
15:00 +30°C° 1.8 mm 4 mps 756 mmHg 81%
16:00 +29°C° 1.8 mm 4 mps 755 mmHg 84%
17:00 +28°C° 1.6 mm 4 mps 756 mmHg 85%
18:00 +28°C° 1.6 mm 5 mps 757 mmHg 86%
19:00 +27°C° 1.6 mm 5 mps 757 mmHg 88%
20:00 +27°C° 0.4 mm 5 mps 758 mmHg 89%
21:00 +26°C° 0.4 mm 4 mps 758 mmHg 90%
22:00 +26°C° 0.4 mm 3 mps 758 mmHg 91%
23:00 +26°C° 0 mm 4 mps 758 mmHg 91%

Tomorrow, 30 November, Monday

Time Temperature Precipitation Wind Pressure Humidity
00:00 +26°C° 0 mm 4 mps 758 mmHg 92%
01:00 +25°C° 0 mm 4 mps 757 mmHg 92%
02:00 +25°C° 0 mm 4 mps 757 mmHg 92%
03:00 +25°C° 0 mm 4 mps 756 mmHg 92%
04:00 +25°C° 0 mm 4 mps 756 mmHg 92%
05:00 +25°C° 0 mm 4 mps 756 mmHg 92%
06:00 +25°C° 0 mm 4 mps 757 mmHg 92%
07:00 +26°C° 0 mm 5 mps 757 mmHg 92%
08:00 +26°C° 0.1 mm 5 mps 758 mmHg 90%
09:00 +27°C° 0.1 mm 6 mps 758 mmHg 87%
10:00 +28°C° 0.1 mm 6 mps 758 mmHg 85%
11:00 +28°C° 0.2 mm 6 mps 757 mmHg 85%
12:00 +28°C° 0.2 mm 6 mps 757 mmHg 85%
13:00 +28°C° 0.2 mm 6 mps 756 mmHg 85%
14:00 +28°C° 0.8 mm 6 mps 756 mmHg 86%
15:00 +27°C° 0.8 mm 6 mps 756 mmHg 87%
16:00 +27°C° 0.8 mm 6 mps 755 mmHg 89%
17:00 +26°C° 0.2 mm 6 mps 756 mmHg 90%
18:00 +26°C° 0.2 mm 6 mps 757 mmHg 91%
19:00 +24°C° 0.2 mm 6 mps 757 mmHg 93%
20:00 +24°C° 0 mm 6 mps 758 mmHg 93%
21:00 +24°C° 0 mm 6 mps 758 mmHg 93%
22:00 +25°C° 0 mm 5 mps 758 mmHg 93%
23:00 +25°C° 0 mm 5 mps 758 mmHg 93%

Day after tomorrow, 1 December, Tuesday

Time Temperature Precipitation Wind Pressure Humidity
00:00 +25°C° 0 mm 5 mps 758 mmHg 94%
01:00 +25°C° 0 mm 5 mps 757 mmHg 94%
02:00 +25°C° 0 mm 5 mps 757 mmHg 94%
03:00 +25°C° 0 mm 5 mps 757 mmHg 94%
04:00 +25°C° 0 mm 5 mps 756 mmHg 94%
05:00 +25°C° 0 mm 5 mps 757 mmHg 94%
06:00 +25°C° 0 mm 5 mps 758 mmHg 94%
07:00 +25°C° 0 mm 5 mps 758 mmHg 93%
08:00 +26°C° 0 mm 5 mps 759 mmHg 91%
09:00 +27°C° 0 mm 5 mps 759 mmHg 89%
10:00 +27°C° 0 mm 5 mps 759 mmHg 87%
11:00 +28°C° 0.8 mm 5 mps 758 mmHg 83%
12:00 +29°C° 0.8 mm 5 mps 758 mmHg 80%
13:00 +30°C° 0.8 mm 6 mps 757 mmHg 76%
14:00 +30°C° 1 mm 6 mps 757 mmHg 78%
15:00 +29°C° 1 mm 6 mps 756 mmHg 81%
16:00 +29°C° 1 mm 6 mps 756 mmHg 83%
17:00 +28°C° 0.1 mm 5 mps 756 mmHg 85%
18:00 +27°C° 0.1 mm 4 mps 757 mmHg 88%
19:00 +27°C° 0.1 mm 4 mps 757 mmHg 91%
20:00 +26°C° 0.1 mm 4 mps 758 mmHg 91%
21:00 +26°C° 0.1 mm 4 mps 758 mmHg 91%
22:00 +26°C° 0.1 mm 4 mps 758 mmHg 92%
23:00 +26°C° 0 mm 3 mps 758 mmHg 92%

2 December, Wednesday

Time Temperature Precipitation Wind Pressure Humidity
00:00 +25°C° 0 mm 3 mps 757 mmHg 93%
01:00 +25°C° 0 mm 3 mps 757 mmHg 94%
02:00 +25°C° 0 mm 3 mps 757 mmHg 95%
03:00 +25°C° 0 mm 3 mps 756 mmHg 95%
04:00 +25°C° 0 mm 3 mps 756 mmHg 95%
05:00 +25°C° 0 mm 3 mps 757 mmHg 95%
06:00 +25°C° 0 mm 3 mps 757 mmHg 94%
07:00 +25°C° 0 mm 2 mps 758 mmHg 93%
08:00 +27°C° 0 mm 3 mps 758 mmHg 87%
09:00 +28°C° 0 mm 4 mps 758 mmHg 80%
10:00 +30°C° 0 mm 5 mps 758 mmHg 73%
11:00 +30°C° 0 mm 5 mps 758 mmHg 71%
12:00 +32°C° 0 mm 5 mps 757 mmHg 68%
13:00 +33°C° 0 mm 6 mps 756 mmHg 66%
14:00 +32°C° 0.1 mm 5 mps 756 mmHg 69%
15:00 +32°C° 0.1 mm 5 mps 756 mmHg 72%
16:00 +30°C° 0.1 mm 4 mps 755 mmHg 74%
17:00 +29°C° 0.1 mm 4 mps 756 mmHg 77%
18:00 +28°C° 0.1 mm 3 mps 756 mmHg 80%
19:00 +27°C° 0.1 mm 2 mps 757 mmHg 82%
20:00 +26°C° 0 mm 2 mps 757 mmHg 82%
21:00 +26°C° 0 mm 2 mps 758 mmHg 82%
22:00 +26°C° 0 mm 2 mps 758 mmHg 82%
23:00 +26°C° 0 mm 3 mps 758 mmHg 82%

3 December, Thursday

Time Temperature Precipitation Wind Pressure Humidity
00:00 +26°C° 0 mm 3 mps 757 mmHg 83%
01:00 +25°C° 0 mm 3 mps 757 mmHg 83%
02:00 +25°C° 0 mm 3 mps 756 mmHg 84%
03:00 +25°C° 0 mm 2 mps 756 mmHg 84%
04:00 +25°C° 0 mm 2 mps 756 mmHg 85%
05:00 +25°C° 0 mm 2 mps 756 mmHg 86%
06:00 +25°C° 0 mm 3 mps 757 mmHg 88%
07:00 +25°C° 0 mm 3 mps 757 mmHg 89%
08:00 +26°C° 0 mm 3 mps 758 mmHg 84%
09:00 +28°C° 0 mm 3 mps 758 mmHg 79%
10:00 +29°C° 0 mm 3 mps 758 mmHg 74%
11:00 +29°C° 0 mm 3 mps 757 mmHg 73%
12:00 +30°C° 0 mm 2 mps 757 mmHg 72%
13:00 +30°C° 0 mm 2 mps 756 mmHg 71%
14:00 +30°C° 0 mm 2 mps 756 mmHg 70%
15:00 +30°C° 0 mm 2 mps 756 mmHg 69%
16:00 +31°C° 0 mm 1 mps 756 mmHg 68%
17:00 +29°C° 0.2 mm 1 mps 756 mmHg 73%
18:00 +28°C° 0.2 mm 1 mps 757 mmHg 77%
19:00 +27°C° 0.2 mm 1 mps 757 mmHg 82%
20:00 +27°C° 0.3 mm 1 mps 758 mmHg 83%
21:00 +26°C° 0.3 mm 1 mps 758 mmHg 85%
22:00 +26°C° 0.3 mm 1 mps 759 mmHg 87%
23:00 +25°C° 0 mm 2 mps 758 mmHg 88%

4 December, Friday

Time Temperature Precipitation Wind Pressure Humidity
00:00 +25°C° 0 mm 2 mps 758 mmHg 88%
01:00 +25°C° 0 mm 2 mps 757 mmHg 88%
02:00 +24°C° 0 mm 2 mps 757 mmHg 89%
03:00 +24°C° 0 mm 3 mps 757 mmHg 89%
04:00 +24°C° 0 mm 3 mps 757 mmHg 89%
05:00 +22°C° 0 mm 3 mps 757 mmHg 87%
06:00 +22°C° 0 mm 3 mps 758 mmHg 86%
07:00 +22°C° 0 mm 4 mps 758 mmHg 85%
08:00 +25°C° 0 mm 4 mps 758 mmHg 81%
09:00 +26°C° 0 mm 3 mps 758 mmHg 78%
10:00 +28°C° 0 mm 3 mps 759 mmHg 74%
11:00 +29°C° 0 mm 3 mps 758 mmHg 71%
12:00 +29°C° 0 mm 3 mps 757 mmHg 69%
13:00 +30°C° 0 mm 2 mps 757 mmHg 66%
14:00 +30°C° 0 mm 2 mps 756 mmHg 65%
15:00 +30°C° 0 mm 2 mps 756 mmHg 65%
16:00 +30°C° 0 mm 2 mps 756 mmHg 64%
17:00 +29°C° 0 mm 2 mps 756 mmHg 68%
18:00 +28°C° 0 mm 2 mps 757 mmHg 71%
19:00 +27°C° 0 mm 2 mps 757 mmHg 75%
20:00 +26°C° 0 mm 3 mps 758 mmHg 77%
21:00 +26°C° 0 mm 3 mps 758 mmHg 79%
22:00 +25°C° 0 mm 3 mps 758 mmHg 81%
23:00 +25°C° 0 mm 3 mps 758 mmHg 82%
Show more